Weather History for Thedford, NE

Change the Weather History Date:

Saturday, November 17, 2012

  Actual Average (KLBF) Record (KLBF)
Temperature  
Mean Temperature 50 °F 35 °F  
Max Temperature 67 °F 49 °F 72 °F (1981)
Min Temperature 33 °F 20 °F -8 °F (2000)
Degree Days  
Heating Degree Days 15 30  
Month to date heating degree days 446  
Since 1 July heating degree days 1115  
Cooling Degree Days 0 0  
Month to date cooling degree days 0  
Year to date cooling degree days 768  
Moisture  
Dew Point 31 °F    
Average Humidity 57    
Maximum Humidity 92    
Minimum Humidity 20    
Precipitation  
Precipitation 0.00 in 0.02 in 0.82 in (1958)
Month to date precipitation 0.42  
Year to date precipitation 19.60  
Snow  
Snow 0.00 in 0.20 in 5.50 in (1958)
Month to date snowfall 2.1  
Since 1 July snowfall 4.4  
Since 1 September snowfall 4.4  
Snow Depth -    
Sea Level Pressure  
Sea Level Pressure 30.04 in    
Wind  
Wind Speed 10 mph (SW)    
Max Wind Speed 17 mph    
Max Gust Speed 21 mph    
Visibility 10 miles    
Events      
T = Trace of Precipitation, MM = Missing Value Source: NWS Daily Summary

Daily Weather History Graph

Daily Weather History Graph

Search for Another Location

Airport:

Trip Planner

Search our weather history database for the weather conditions in past years. The results will help you decide how hot, cold, wet, or windy it might be!

Date:

Astronomy

Nov. 17, 2012 Rise Set
Actual Time 7:35 AM CST 5:19 PM CST
Civil Twilight 7:04 AM CST 5:49 PM CST
Nautical Twilight 6:31 AM CST 6:23 PM CST
Astronomical Twilight 5:57 AM CST 6:56 PM CST
Moon 11:21 AM CST (11/17) 9:31 PM CST (11/17)
Length of Visible Light 10h 44m
Length of Day
9h 43m
Waxing Crescent, 20% of the Moon is Illuminated
Nov 17
Waxing Crescent
Nov 20
First Quarter
Nov 28
Full
Dec 6
Last Quarter
Dec 13
New

Hourly Weather History & Observations

Time (CST) Temp. Windchill Dew Point Humidity Pressure Visibility Wind Dir Wind Speed Gust Speed Precip Events Conditions
12:15 AM 42.3 °F 36.8 °F 32.9 °F 69% 30.10 in 10.0 mi South 9.2 mph - N/A   Clear
12:35 AM 43.5 °F 36.4 °F 33.1 °F 67% 30.09 in 10.0 mi South 15.0 mph - N/A   Clear
12:55 AM 44.2 °F 36.7 °F 33.1 °F 65% 30.08 in 10.0 mi South 17.3 mph - N/A   Clear
1:15 AM 44.6 °F 37.8 °F 32.9 °F 64% 30.08 in 10.0 mi South 15.0 mph - N/A   Clear
1:35 AM 44.6 °F 38.1 °F 33.1 °F 64% 30.07 in 10.0 mi South 13.8 mph - N/A   Clear
1:55 AM 44.2 °F 38.0 °F 33.4 °F 66% 30.07 in 10.0 mi South 12.7 mph - N/A   Clear
2:15 AM 44.4 °F 37.9 °F 33.8 °F 66% 30.07 in 10.0 mi South 13.8 mph - N/A   Clear
2:35 AM 43.9 °F 37.2 °F 33.8 °F 68% 30.07 in 10.0 mi South 13.8 mph 20.7 mph N/A   Clear
2:55 AM 43.2 °F 37.4 °F 33.6 °F 69% 30.07 in 10.0 mi South 10.4 mph 16.1 mph N/A   Clear
3:15 AM 42.4 °F 35.3 °F 33.4 °F 70% 30.06 in 10.0 mi South 13.8 mph - N/A   Clear
3:35 AM 42.1 °F 35.7 °F 33.6 °F 72% 30.05 in 10.0 mi South 11.5 mph 19.6 mph N/A   Clear
3:55 AM 41.9 °F 35.4 °F 33.8 °F 73% 30.05 in 10.0 mi South 11.5 mph - N/A   Clear
4:15 AM 41.4 °F 35.2 °F 33.8 °F 74% 30.05 in 10.0 mi South 10.4 mph - N/A   Clear
4:35 AM 41.0 °F 36.4 °F 33.8 °F 76% 30.05 in 10.0 mi South 6.9 mph - N/A   Clear
4:55 AM 40.5 °F 33.2 °F 34.0 °F 78% 30.05 in 10.0 mi South 12.7 mph - N/A   Clear
5:15 AM 40.6 °F 32.7 °F 34.0 °F 77% 30.04 in 10.0 mi South 15.0 mph - N/A   Clear
5:35 AM 40.1 °F - 33.8 °F 78% 30.05 in 10.0 mi Calm Calm - N/A   Clear
5:55 AM 39.4 °F 34.5 °F 33.6 °F 80% 30.05 in 10.0 mi South 6.9 mph - N/A   Clear
6:15 AM 38.3 °F 33.9 °F 33.1 °F 81% 30.05 in 10.0 mi SSW 5.8 mph - N/A   Clear
6:35 AM 37.8 °F 33.3 °F 32.9 °F 83% 30.05 in 10.0 mi SSW 5.8 mph - N/A   Clear
6:55 AM 36.5 °F 32.7 °F 32.4 °F 85% 30.05 in 10.0 mi SSW 4.6 mph - N/A   Clear
7:15 AM 35.6 °F 32.8 °F 32.0 °F 87% 30.05 in 10.0 mi SSW 3.5 mph - N/A   Clear
7:35 AM 34.2 °F 31.2 °F 32.0 °F 92% 30.06 in 10.0 mi SSW 3.5 mph - N/A   Clear
7:55 AM 33.6 °F 30.6 °F 31.6 °F 92% 30.07 in 7.0 mi SW 3.5 mph - N/A   Clear
8:15 AM 35.4 °F 30.5 °F 32.5 °F 89% 30.06 in 7.0 mi SSW 5.8 mph - N/A   Clear
8:35 AM 36.9 °F 30.7 °F 33.1 °F 86% 30.06 in 10.0 mi SSW 8.1 mph - N/A   Clear
8:55 AM 38.5 °F 31.6 °F 33.8 °F 83% 30.08 in 10.0 mi SW 10.4 mph - N/A   Clear
9:15 AM 40.5 °F 33.6 °F 34.7 °F 80% 30.08 in 10.0 mi SW 11.5 mph - N/A   Clear
9:35 AM 42.8 °F 38.6 °F 34.7 °F 73% 30.08 in 10.0 mi WSW 6.9 mph - N/A   Clear
9:55 AM 44.8 °F 39.9 °F 34.3 °F 67% 30.08 in 10.0 mi SW 9.2 mph - N/A   Clear
10:15 AM 46.8 °F - 34.9 °F 63% 30.07 in 10.0 mi SSW 6.9 mph - N/A   Clear
10:35 AM 48.7 °F - 34.7 °F 58% 30.07 in 10.0 mi SSW 8.1 mph - N/A   Clear
11:55 AM 59.9 °F - 32.0 °F 35% 30.05 in 10.0 mi WSW 6.9 mph - N/A   Clear
12:15 PM 61.0 °F - 31.1 °F 32% 30.03 in 10.0 mi West 6.9 mph - N/A   Clear
12:35 PM 62.1 °F - 31.1 °F 31% 30.03 in 10.0 mi WNW 4.6 mph - N/A   Clear
12:55 PM 63.3 °F - 31.3 °F 30% 30.02 in 10.0 mi WSW 3.5 mph - N/A   Clear
1:15 PM 64.4 °F - 29.3 °F 27% 30.01 in 10.0 mi WSW 5.8 mph - N/A   Clear
1:35 PM 65.8 °F - 27.7 °F 24% 30.00 in 10.0 mi WSW 6.9 mph - N/A   Clear
1:55 PM 67.1 °F - 25.3 °F 21% 29.99 in 10.0 mi West 5.8 mph - N/A   Clear
2:15 PM 66.7 °F - 24.6 °F 20% 30.00 in 10.0 mi West 10.4 mph - N/A   Clear
2:35 PM 66.9 °F - 25.0 °F 21% 30.00 in 10.0 mi WNW 10.4 mph 16.1 mph N/A   Clear
2:55 PM 66.7 °F - 25.2 °F 21% 29.99 in 10.0 mi WNW 9.2 mph - N/A   Clear
3:15 PM 66.7 °F - 25.0 °F 21% 29.99 in 10.0 mi West 10.4 mph - N/A   Clear
3:35 PM 66.4 °F - 25.0 °F 21% 30.00 in 10.0 mi West 9.2 mph - N/A   Clear
3:55 PM 65.7 °F - 25.0 °F 21% 30.01 in 10.0 mi West 9.2 mph - N/A   Clear
4:15 PM 64.8 °F - 25.2 °F 22% 30.01 in 10.0 mi West 9.2 mph - N/A   Clear
4:35 PM 62.6 °F - 25.5 °F 24% 30.02 in 10.0 mi West 8.1 mph - N/A   Clear
4:55 PM 60.8 °F - 25.5 °F 26% 30.02 in 10.0 mi West 8.1 mph - N/A   Clear
5:15 PM 57.4 °F - 25.2 °F 29% 30.01 in 10.0 mi West 5.8 mph - N/A   Clear
5:35 PM 53.6 °F - 24.8 °F 33% 30.02 in 10.0 mi WSW 6.9 mph - N/A   Clear
5:55 PM 52.0 °F - 24.8 °F 35% 30.03 in 10.0 mi Calm Calm - N/A   Clear
6:15 PM 50.2 °F - 24.6 °F 37% 30.03 in 10.0 mi WSW 4.6 mph - N/A   Clear
6:35 PM 50.0 °F - 25.0 °F 38% 30.03 in 10.0 mi Calm Calm - N/A   Clear
6:55 PM 45.7 °F 44.4 °F 24.8 °F 44% 30.03 in 10.0 mi SW 3.5 mph - N/A   Clear
7:15 PM 44.2 °F 39.7 °F 24.6 °F 46% 30.04 in 10.0 mi ESE 8.1 mph - N/A   Clear
7:35 PM 47.7 °F - 31.1 °F 53% 30.04 in 10.0 mi South 9.2 mph - N/A   Clear
7:55 PM 48.6 °F - 32.0 °F 53% 30.04 in 10.0 mi SSW 10.4 mph - N/A   Clear
8:15 PM 46.8 °F - 32.0 °F 57% 30.04 in 10.0 mi SSW 11.5 mph - N/A   Clear
8:35 PM 45.9 °F 40.8 °F 32.0 °F 58% 30.04 in 10.0 mi SSW 10.4 mph - N/A   Clear
8:55 PM 45.9 °F 40.8 °F 32.2 °F 59% 30.04 in 10.0 mi SSW 10.4 mph - N/A   Clear
9:15 PM 45.3 °F 39.7 °F 32.0 °F 60% 30.05 in 10.0 mi SSW 11.5 mph - N/A   Clear
9:35 PM 44.8 °F 39.0 °F 32.0 °F 61% 30.04 in 10.0 mi SSW 11.5 mph - N/A   Clear
9:55 PM 44.6 °F 39.2 °F 32.0 °F 61% 30.04 in 10.0 mi SSW 10.4 mph - N/A   Clear
10:15 PM 42.8 °F 37.5 °F 32.0 °F 66% 30.04 in 10.0 mi SSW 9.2 mph - N/A   Clear
10:35 PM 43.5 °F 37.9 °F 32.0 °F 64% 30.04 in 10.0 mi SSW 10.4 mph - N/A   Clear
10:55 PM 44.6 °F 38.8 °F 32.0 °F 61% 30.04 in 10.0 mi SW 11.5 mph - N/A   Clear
11:15 PM 44.6 °F 39.2 °F 32.0 °F 61% 30.03 in 10.0 mi SSW 10.4 mph - N/A   Clear
11:35 PM 43.5 °F 40.1 °F 32.0 °F 64% 30.03 in 10.0 mi SW 5.8 mph - N/A   Clear
11:55 PM 41.4 °F 36.8 °F 31.8 °F 69% 30.03 in 10.0 mi WSW 6.9 mph - N/A   Clear